SR1WXZ Szczecin PL current weather conditions

sailwx.info

Wind from 100 at 10 knots

Air temperature 6.1° C
Dewpoint 2.9° C

Last reported at 2019-Nov-15 07:00 UTC.
Time now 2019-Nov-15 08:10 UTC

Location: N 53°27' E 014°32'.
View on Google Maps.

See reports from other nearby stations

  
Tides and Currents Weather Stations Pressure Air Temp Water Temp Dewpoint Dewpoint Depression Visibility Wind Speed Wind Dir Waves Ship Positions
date/time (UTC)wind fromknots sea level pressurealtimeterstation pressurevisibilityair tempwater tempwave heightnotes
2019-Nov-15 07:00 100 10 6.1
2019-Nov-15 06:45 100 10 6.1
2019-Nov-15 06:30 090 10 3.9
2019-Nov-15 06:15 090 10 3.9
2019-Nov-15 06:00 100 8 3.9
2019-Nov-15 05:45 100 8 3.9
2019-Nov-15 05:30 100 10 3.9
2019-Nov-15 05:15 100 10 3.9
2019-Nov-15 05:00 100 12 3.9
2019-Nov-15 04:45 100 12 3.9
2019-Nov-15 04:30 090 12 gusting 21 3.9
2019-Nov-15 04:15 090 12 gusting 21 3.9
2019-Nov-15 04:00 100 12 3.9
2019-Nov-15 03:45 100 12 3.9
2019-Nov-15 03:30 090 12 3.9
2019-Nov-15 03:15 090 12 3.9
2019-Nov-15 03:00 090 10 3.9
2019-Nov-15 02:45 090 10 3.9
2019-Nov-15 02:30 090 12 3.9
2019-Nov-15 02:15 090 12 3.9
2019-Nov-15 02:00 100 11 2.8
2019-Nov-15 01:45 100 11 2.8
2019-Nov-15 01:30 100 12 3.9
2019-Nov-15 01:15 100 12 3.9
2019-Nov-15 01:00 110 8 2.8
2019-Nov-15 00:45 110 8 2.8
2019-Nov-15 00:30 100 10 3.9
2019-Nov-15 00:15 100 10 3.9
2019-Nov-15 00:00 110 13 3.9
2019-Nov-14 23:45 110 13 3.9
2019-Nov-14 23:30 090 11 3.9
2019-Nov-14 23:15 090 11 3.9
2019-Nov-14 23:00 090 11 3.9
2019-Nov-14 22:45 090 11 3.9
2019-Nov-14 22:30 100 10 3.9
2019-Nov-14 22:15 100 10 3.9
2019-Nov-14 22:00 110 8 2.8
2019-Nov-14 21:45 110 8 2.8
2019-Nov-14 21:30 090 8 2.8
2019-Nov-14 21:15 090 8 2.8
2019-Nov-14 21:00 100 10 2.8
2019-Nov-14 20:45 100 10 2.8
2019-Nov-14 20:30 100 6 2.8
2019-Nov-14 20:15 100 6 2.8
2019-Nov-14 20:00 110 6 2.8
2019-Nov-14 19:45 110 6 2.8
2019-Nov-14 19:30 120 6 2.8
2019-Nov-14 19:15 120 6 2.8
2019-Nov-14 19:00 110 6 2.8
2019-Nov-14 18:45 110 6 2.8
2019-Nov-14 18:30 120 7 2.8
2019-Nov-14 18:15 120 7 2.8
2019-Nov-14 18:00 110 6 2.8
2019-Nov-14 17:45 110 6 2.8
2019-Nov-14 17:30 100 7 2.8
2019-Nov-14 17:15 100 7 2.8
2019-Nov-14 17:00 110 8 2.8
2019-Nov-14 16:45 110 8 2.8
2019-Nov-14 16:30 090 6 3.9
2019-Nov-14 16:15 090 6 3.9
2019-Nov-14 16:00 100 6 6.1
2019-Nov-14 15:45 100 6 6.1
2019-Nov-14 15:30 110 6 6.1
2019-Nov-14 15:15 110 6 6.1
2019-Nov-14 15:00 120 6 7.2
2019-Nov-14 14:45 120 6 7.2
2019-Nov-14 14:30 120 7 7.2
2019-Nov-14 14:15 120 7 7.2
2019-Nov-14 14:00 130 6 7.8
2019-Nov-14 13:45 130 6 7.8
2019-Nov-14 13:30 120 8 7.2
2019-Nov-14 13:15 120 8 7.2
2019-Nov-14 13:00 130 10 7.8
2019-Nov-14 12:45 130 10 7.8
2019-Nov-14 12:30 150 7 7.8
2019-Nov-14 12:15 150 7 7.8
2019-Nov-14 12:00 130 7 7.8
2019-Nov-14 11:45 130 7 7.8
2019-Nov-14 11:42 130 7 7.8
2019-Nov-14 11:30 140 8 7.8
2019-Nov-14 11:15 140 8 7.8
2019-Nov-14 11:00 140 7 7.8
2019-Nov-14 10:45 140 7 7.8
2019-Nov-14 10:30 130 6 7.2
2019-Nov-14 10:15 130 6 7.2
2019-Nov-14 10:00 140 6 6.1
2019-Nov-14 09:45 140 6 6.1
2019-Nov-14 09:30 140 6 6.1
2019-Nov-14 09:15 140 6 6.1
2019-Nov-14 09:00 150 6 6.1
2019-Nov-14 08:45 150 6 6.1
2019-Nov-14 08:30 150 7 3.9
2019-Nov-14 08:15 150 7 3.9
2019-Nov-14 08:00 160 6 3.9
2019-Nov-14 07:45 160 6 3.9
2019-Nov-14 07:30 3.9
2019-Nov-14 07:15 3.9
2019-Nov-14 07:00 3.9
2019-Nov-14 06:45 3.9
2019-Nov-14 06:30 150 6 3.9
2019-Nov-14 06:15 150 6 3.9
2019-Nov-14 06:00 140 6 3.9
2019-Nov-14 05:45 140 6 3.9
2019-Nov-14 05:30 140 4 3.9
2019-Nov-14 05:15 140 4 3.9
2019-Nov-14 05:00 150 4 3.9
2019-Nov-14 04:45 150 4 3.9
2019-Nov-14 04:30 150 5 3.9
2019-Nov-14 04:15 150 5 3.9
2019-Nov-14 04:00 150 4 3.9
2019-Nov-14 03:45 150 4 3.9
2019-Nov-14 03:30 140 5 2.8
2019-Nov-14 03:15 140 5 2.8
2019-Nov-14 03:00 150 4 2.8
2019-Nov-14 02:45 150 4 2.8
2019-Nov-14 02:30 130 4 2.8
2019-Nov-14 02:15 130 4 2.8
2019-Nov-14 02:00 160 2 2.8
2019-Nov-14 01:45 160 2 2.8
2019-Nov-14 01:30 140 5 2.8
2019-Nov-14 01:15 140 5 2.8
2019-Nov-14 01:00 140 4 2.8
2019-Nov-14 00:45 140 4 2.8
2019-Nov-14 00:30 160 2 3.9
2019-Nov-14 00:15 160 2 3.9
2019-Nov-14 00:00 150 2 3.9
2019-Nov-13 23:45 150 2 3.9
2019-Nov-13 23:30 140 2 3.9
2019-Nov-13 23:15 140 2 3.9
2019-Nov-13 23:00 3.9
2019-Nov-13 22:45 3.9
2019-Nov-13 22:30 160 2 3.9
2019-Nov-13 22:15 160 2 3.9
2019-Nov-13 22:00 150 4 3.9
2019-Nov-13 21:45 150 4 3.9
2019-Nov-13 21:30 140 2 2.8
2019-Nov-13 21:15 140 2 2.8
2019-Nov-13 21:00 140 4 3.9
2019-Nov-13 20:45 140 4 3.9
2019-Nov-13 20:30 140 4 3.9
2019-Nov-13 20:15 140 4 3.9
2019-Nov-13 20:00 140 4 3.9
2019-Nov-13 19:45 140 4 3.9
2019-Nov-13 19:30 150 4 6.1
2019-Nov-13 19:15 150 4 6.1
2019-Nov-13 19:00 150 5 3.9
2019-Nov-13 18:45 150 5 3.9
2019-Nov-13 18:30 150 6 6.1
2019-Nov-13 18:15 150 6 6.1
2019-Nov-13 18:00 140 6 6.1
2019-Nov-13 17:45 140 6 6.1
2019-Nov-13 17:30 140 7 6.1
2019-Nov-13 17:15 140 7 6.1
2019-Nov-13 17:00 130 6 6.1
2019-Nov-13 16:45 130 6 6.1
2019-Nov-13 16:30 140 6 6.1
2019-Nov-13 16:15 140 6 6.1
2019-Nov-13 16:00 140 6 6.1
2019-Nov-13 15:45 140 6 6.1
2019-Nov-13 15:30 140 5 6.1
2019-Nov-13 15:15 140 5 6.1
2019-Nov-13 15:00 130 6 6.1
2019-Nov-13 14:45 130 6 6.1
2019-Nov-13 14:30 150 6 7.2
2019-Nov-13 14:15 150 6 7.2
2019-Nov-13 14:00 150 6 7.2
2019-Nov-13 13:45 150 6 7.2
2019-Nov-13 13:30 150 4 7.2
2019-Nov-13 13:15 150 4 7.2
2019-Nov-13 13:00 140 6 7.2
2019-Nov-13 12:45 140 6 7.2
2019-Nov-13 12:30 150 6 6.1
2019-Nov-13 12:15 150 6 6.1
2019-Nov-13 12:00 140 6 6.1
2019-Nov-13 11:45 140 6 6.1
2019-Nov-13 11:30 150 6 6.1
2019-Nov-13 11:15 150 6 6.1
2019-Nov-13 11:00 140 6 6.1
2019-Nov-13 10:45 140 6 6.1
2019-Nov-13 10:30 150 5 6.1
2019-Nov-13 10:15 150 5 6.1
2019-Nov-13 10:00 150 6 6.1
2019-Nov-13 09:45 150 6 6.1
2019-Nov-13 09:30 150 7 6.1
2019-Nov-13 09:15 150 7 6.1
2019-Nov-13 09:00 150 7 6.1
2019-Nov-13 08:45 150 7 6.1
2019-Nov-13 08:30 150 6 3.9
2019-Nov-13 08:15 150 6 3.9
2019-Nov-13 08:00 140 6 3.9